Regional Weather Roundup
Issued by NWS

Home | Current Version | Previous Version | Graphics & Text | Print | Product List | Glossary On
Versions: 1 2 3 4 5 6 7 8 9 10 11 12 13 14 15 16 17 18 19 20 21 22 23 24 25 26 27 28 29 30 31 32 33 34 35 36 37 38 39 40 41 42 43 44 45 46 47 48 49 50
000
ASUS43 KDMX 121807
RWRIA

WEATHER ROUNDUP FOR IOWA
NATIONAL WEATHER SERVICE DES MOINES IA
100 PM CDT SAT JUL 12 2014

NOTE: "FAIR" INDICATES FEW OR NO CLOUDS BELOW 12,000 FEET WITH NO
SIGNIFICANT WEATHER AND/OR OBSTRUCTIONS TO VISIBILITY.

* - THESE STATIONS ARE NOT NWS STATIONS...THUS NOT UNDER NWS
QUALITY CONTROL.  THEY ALSO DO NOT REPORT WEATHER SUCH
AS PRECIPITATION OR FOG.

IAZ001>003-012>014-020>022-031>034-043>046-121900-
   NORTHWEST IOWA

CITY           SKY/WX    TMP DP  RH WIND       PRES   REMARKS
CARROLL *      MOSUNNY   77  70  78 CALM      30.00R
CHEROKEE *     LGT RAIN  68  68  99 N12       30.04F
DENISON *      PTSUNNY   77  72  83 N6        29.99R
LE MARS *      CLOUDY    70  68  94 N8        30.04F
ORANGE CITY *  RAIN      70  66  88 NE5       30.05F
SHELDON *      CLOUDY    70  66  88 NW3       30.06F
SIOUX CITY     CLOUDY    73  69  87 NE12      30.03S
6HR MIN TEMP:  69; 6HR MAX TEMP:  74; 6HR PCP: TRACE;

SPENCER        LGT RAIN  68  65  90 NW10      30.06F
6HR MIN TEMP:  67; 6HR MAX TEMP:  71; 6HR PCP:  0.71;

STORM LAKE *   CLOUDY    70  70 100 N12       30.06R
$$

IAZ055>058-069>071-079>083-090>094-121900-
   SOUTHWEST IOWA

CITY           SKY/WX    TMP DP  RH WIND       PRES   REMARKS
ATLANTIC *     SUNNY     82  72  69 S10       29.97F HX  87
AUDUBON *      SUNNY     82  77  83 S3        29.99F HX  91
CLARINDA *     SUNNY     86  75  70 S12       29.99F HX  95
COUNCIL BLFS * SUNNY     84  75  74 S7        29.96F HX  92
CRESTON *      SUNNY     84  73  70 S15       29.99F HX  91
HARLAN  *      SUNNY     81  75  83 S6        30.01F HX  86
LAMONI         MOSUNNY   86  71  60 S10       30.01F HX  91
6HR MIN TEMP:  73; 6HR MAX TEMP:  86;

RED OAK *      SUNNY     86  73  66 SW9G17    29.97S HX  93
SHENANDOAH *   SUNNY     86  75  70 S14       29.97F HX  95
$$

IAZ047>049-059>061-072>074-084-121900-
   CENTRAL IOWA

CITY           SKY/WX    TMP DP  RH WIND       PRES   REMARKS
AMES           CLOUDY    80  72  76 S3        29.99F HX  84
6HR MIN TEMP:  70; 6HR MAX TEMP:  81;

ANKENY *       SUNNY     82  73  74 S5G12     29.97F HX  88
CHARITON *     SUNNY     86  73  66 S15G21    29.99S HX  93
DES MOINES     CLOUDY    85  73  67 SW9       29.96F HX  91
6HR MIN TEMP:  72; 6HR MAX TEMP:  86;

GRINNELL*      CLOUDY    81  72  72 S7        30.00S HX  86
KNOXVILLE *    SUNNY     84  73  70 S13       29.96F HX  91
MARSHALLTOWN   CLOUDY    78  72  81 CALM      29.99F HX  80
6HR MIN TEMP:  70; 6HR MAX TEMP:  80;

PELLA *        CLOUDY    85  74  68 S7        29.99S HX  92
PERRY *          N/A     79  72  78 S3        29.99S HX  82
$$

IAZ004>006-015-016-023>025-035-036-121900-
   NORTH CENTRAL IOWA

CITY           SKY/WX    TMP DP  RH WIND       PRES   REMARKS
ALGONA *       RAIN      68  66  94 N10       30.06R
CLARION *      CLOUDY    75  72  88 NW10      30.03R
ESTHERVILLE    RAIN      68  66  93 NW6       30.06F FOG
6HR MIN TEMP:  68; 6HR MAX TEMP:  71; 6HR PCP:  0.36;

FORT DODGE *   CLOUDY    73  70  88 CALM      30.04S
MASON CITY     RAIN      74  72  93 NW13      30.04S FOG
6HR MIN TEMP:  70; 6HR MAX TEMP:  78; 6HR PCP:  0.03;

FOREST CITY *  LGT RAIN  72  70  94 NW10G18   30.05R
IOWA FALLS *   PTSUNNY   77  68  73 CALM      30.03R
$$

IAZ007>011-017>019-026>030-037>042-050>054-066-121900-
   NORTHEAST IOWA

CITY           SKY/WX    TMP DP  RH WIND       PRES   REMARKS
CEDAR RAPIDS   PTSUNNY   80  73  79 SE6       29.99F HX  84
6HR MIN TEMP:  69; 6HR MAX TEMP:  80; 6HR PCP:  0.02;

CHARLES CITY * PTSUNNY   77  72  83 CALM      30.02R
CLINTON *      CLOUDY    79  73  83 S9        30.04F HX  82
DECORAH *        N/A    N/A N/A N/A MISG        N/A
DUBUQUE        CLOUDY    76  72  87 S9        30.02S
6HR MIN TEMP:  68; 6HR MAX TEMP:  77; 6HR PCP:  0.14;

MONTICELLO *   MOSUNNY   79  73  83 SW8       30.01S HX  82
OELWEIN *      PTSUNNY   77  77 100 S7        30.02S
WATERLOO       CLOUDY    78  71  79 SE5       29.99S HX  80
6HR MIN TEMP:  72; 6HR MAX TEMP:  79; 6HR PCP: TRACE;

$$

IAZ064-065-067-068-078-121900-
   EAST CENTRAL IOWA

CITY           SKY/WX    TMP DP  RH WIND       PRES   REMARKS
DAVENPORT      CLOUDY    80  72  76 S9        30.02F HX  84
6HR MIN TEMP:  70; 6HR MAX TEMP:  80; 6HR PCP:  0.26;

IOWA CITY      PTSUNNY   82  75  79 S7        30.00F HX  89
6HR MIN TEMP:  69; 6HR MAX TEMP:  82; 6HR PCP: TRACE;

MT. PLEASANT * PTSUNNY   87  74  64 S10G16    30.00F HX  95
MUSCATINE *    CLOUDY    84  75  74 S8        29.99F HX  92
QUAD CITIES    CLOUDY    82  72  69 S12       30.01F HX  87
6HR MIN TEMP:  71; 6HR MAX TEMP:  82; 6HR PCP:  0.41;

$$

IAZ062-063-075>077-085>089-095>099-121900-
   SOUTHEAST IOWA

CITY           SKY/WX    TMP DP  RH WIND       PRES   REMARKS
BURLINGTON     CLOUDY    86  76  71 S13       30.00F HX  96
6HR MIN TEMP:  76; 6HR MAX TEMP:  86;

FAIRFIELD *    SUNNY     86  73  66 S13       29.99F HX  93
FORT MADISON * SUNNY     86  79  79 SW9       30.02F HX  99
KEOKUK *       SUNNY     82  75  78 S14       30.01F HX  89
OSKALOOSA *      N/A     85  74  68 S12       29.98F HX  92
CENTERVILLE *  SUNNY     86  75  70 S10G17    30.02F HX  95
OTTUMWA        PTSUNNY   85  74  69 S10       29.98F HX  92
6HR MIN TEMP:  74; 6HR MAX TEMP:  86;

WASHINGTON *   MOSUNNY   88  75  66 S12       29.98F HX  97
$$

ABBREVIATIONS USED IN REMARKS
   TC - TEMPERATURES IN CELSIUS
  WCI - WIND CHILL INDEX
   HX - HEAT INDEX
  VSB - VISIBILITY
$$



USA.gov is the U.S. government's official web portal to all federal, state and local government web resources and services.